User: anonymous   Login
Location: Diguira
(13.1838°N, 4.9109°W)
Time: 01:51:09
(UTC+00:00)
Language:

Okean O Rocket - Orbit

View from above orbital plane
View from above orbital plane
View from above satellite
View from above satellite

Ground track
Ground track

The orbit data is extracted from the following two-line orbital elements,

1 25861U 99039B   20332.78309076  .00000108  00000-0  22342-4 0  9998
2 25861  98.2097 338.1846 0015543 358.3186 174.5958 14.78603878151899
Epoch (UTC): 27 November 2020 18:47:39
Eccentricity: 0.0015543
inclination: 98.2097°
perigee height: 623 km
apogee height: 644 km
right ascension of ascending node: 338.1846°
argument of perigee: 358.3186°
revolutions per day: 14.78603878
mean anomaly at epoch: 174.5958°
orbit number at epoch: 15189

The dashed part of the orbit path shows where the satellite is in the earth's shadow,  

DLR